Regional Weather Roundup
Issued by NWS San Diego, CA

Home | Current Version | Previous Version | Text Only | Print | Product List | Glossary On
Versions: 1 2 3 4 5 6 7 8 9 10 11 12 13 14 15 16 17 18 19 20 21 22 23 24 25 26 27 28
000
ASUS46 KSGX 011111
RWRSGX

SAN DIEGO HOURLY WEATHER ROUNDUP
NATIONAL WEATHER SERVICE SAN DIEGO CA
400 AM PDT SUN MAY 01 2016

NOTE: "FAIR" INDICATES FEW OR NO CLOUDS BELOW 12,000 FEET WITH NO
SIGNIFICANT WEATHER AND/OR OBSTRUCTIONS TO VISIBILITY.

CAZ042-043-060-061-PZZ750-775-011200-

GREATER SAN DIEGO AREA

CITY           SKY/WX    TMP DP  RH WIND       PRES   REMARKS
LINDBERGH FLD  MOCLDY    62  53  72 SW3       29.87R
POINT LOMA       N/A     58  58 100 S6          N/A
NATIONAL CITY    N/A     57  51  81 CALM      29.87R
CHULA VISTA      N/A     53  50  90 E3        29.79R
IMPERIAL BEACH CLEAR     53  48  83 CALM      29.87R
BROWN FIELD    CLEAR     53  51  93 CALM      29.86R
MIRAMAR MCAS   PTCLDY    53  47  79 E5        29.86R
MONTGOMERY FLD CLEAR     55  49  80 CALM      29.86R

$$

NORTH SAN DIEGO COUNTY

CITY           SKY/WX    TMP DP  RH WIND       PRES   REMARKS
CAMP PENDLETON CLEAR     47  46  97 CALM      29.86S FOG
OCEANSIDE AP   CLEAR     49  45  86 CALM      29.86R
OCEANSIDE HBR    N/A     54  51  89 NE5       29.88R
VISTA            N/A     50  46  85 CALM      29.84R
CARLSBAD       CLEAR     56  50  80 E3        29.85R
DEL MAR          N/A     55  52  91 CALM      29.89R
LA JOLLA SCRIP   N/A     57  53  85 SE2       29.86R
FALLBROOK        N/A     52  51  98 CALM      29.85S
SAN MARCOS       N/A     53  46  75 CALM      29.85R
POWAY            N/A     48  45  87 CALM      29.88R

$$

EAST SAN DIEGO COUNTY

CITY           SKY/WX    TMP DP  RH WIND       PRES   REMARKS
RAMONA         CLEAR     42  39  89 CALM      29.86R
SANTEE LAKES     N/A     49  47  91 CALM      29.86R
LA MESA          N/A     54  50  87 CALM      29.80R
JAMUL            N/A     49  47  91 CALM      29.86S
DESCANSO N       N/A     43  40  92 W2        29.78R
MT. LAGUNA OBS   N/A     40  36  83 NW2       29.51
CAMPO            N/A     47  44  90 NW5       29.83R

$$

ORANGE COUNTY AND THE LOS ANGELES BASIN

CITY           SKY/WX    TMP DP  RH WIND       PRES   REMARKS
JOHN WAYNE AP  CLEAR     57  50  77 E6        29.85R
LAKE FOREST FR   N/A     53  47  79 CALM      29.75R
HUNTINGTON BCH   N/A     58  54  87 CALM      29.87R
LOS ALAMITOS   MOCLDY    57  52  82 E3        29.85R
FULLERTON      MOCLDY    59  51  75 E3        29.84S
LONG BEACH     MOCLDY    58  52  80 E5        29.85R
L.A. AP        MOCLDY    57  50  77 CALM      29.85S
L.A. DOWNTOWN  MOCLDY    59  52  77 E3        29.85R

$$

THE INLAND EMPIRE

CITY           SKY/WX    TMP DP  RH WIND       PRES   REMARKS
CORONA         PTCLDY    48  44  86 CALM      29.86R
CHINO          PTCLDY    54  46  74 CALM      29.86S
ONTARIO        PTCLDY    54  46  74 W3        29.85R
RIVERSIDE AP   MOCLDY    53  47  79 CALM      29.85S
MORENO VALLEY    N/A     50  49  98 CALM      27.98S
MARCH ARB      PTCLDY    48  48 100 CALM      29.85R
HORSETHIEF CYN   N/A     49  42  77 CALM      29.88S
PERRIS           N/A     51  49  94 CALM        N/A
HEMET EAST       N/A     48  43  84 CALM      29.76S
FRENCH VALLEY  FAIR      50  46  87 CALM      29.86S
TEMECULA         N/A     51  49  92 CALM      29.84S

$$

SAN BERNARDINO AND RIVERSIDE COUNTY MOUNTAINS

CITY           SKY/WX    TMP DP  RH WIND       PRES   REMARKS
BIG BEAR AP    CLOUDY    41  32  70 E14       29.94S
ANGELUS OAKS     N/A     45  36  71 CALM      29.80S
PINE COVE        N/A     44  36  73 NW2       29.86F

$$

SOUTHERN DESERT INCLUDING THE COACHELLA VALLEY

CITY           SKY/WX    TMP DP  RH WIND       PRES   REMARKS
PALM SPRINGS   CLEAR     62  48  60 SW3       29.79R
THOUSAND PALMS   N/A     64  47  53 W8        29.75R
PALM DESERT      N/A     62  49  62 CALM      31.07S
THERMAL        CLEAR     65  47  52 N9        29.74R
BLYTHE         CLEAR     56  49  77 W3        29.76R
IMPERIAL AP    CLEAR     62  46  55 W8        29.74R
EL CENTRO NAS  CLEAR     61  44  53 SW8       29.76R
YUMA AZ        CLEAR     63  47  55 NW5       29.75

$$

UPPER DESERT

CITY           SKY/WX    TMP DP  RH WIND       PRES   REMARKS
VICTORVILLE AP PTCLDY    52  34  50 CALM      29.86R
HESPERIA         N/A     51  40  67 W1        29.98R
PALMDALE       CLEAR     50  41  71 S5        29.86S
LANCASTER      CLEAR     49  29  46 CALM      29.86R
EDWARDS AFB    CLEAR     50  34  53 SW7       29.83S
DAGGETT        CLOUDY    55  46  71 W5        29.83R
29 PALMS N     PTCLDY    57  40  52 NW13      29.88R
NEEDLES        PTCLDY    61  49  64 N3        29.78R

$$

REGIONAL REPORTS

CITY           SKY/WX    TMP DP  RH WIND       PRES   REMARKS
SANTA BARBARA  CLEAR     54  50  86 E6        29.83R
SANDBERG       CLEAR     52  29  41 N5        29.92R
LAS VEGAS NV   MOCLDY    55  48  77 S6        29.81R
PHOENIX AZ     MOCLDY    60  47  61 E5        29.75R
TIJUANA        CLEAR     54  46  76 CALM      29.87
ENSENADA NW      N/A     57  32  38 CALM      29.85R

$$

OFFSHORE ISLANDS

CITY           SKY/WX    TMP DP  RH WIND       PRES   REMARKS
CATALINA ARPT  CLEAR     52  43  71 S5        29.85S
SAN NICOLAS IS CLEAR    N/A N/A N/A S7        29.83R

$$

MARINE AND OFFSHORE BUOY REPORTS

STATION/POSITION SKY/WX   TEMP    WIND        PRES    SWELL
                          AIR SEA DIR/SP/G            HT/PER/DIR
                          (F)     (DEG/KT/KT) (MB)    (FT/S/D)
TANNER BANKS               57 58  290/  8/ 12 1010.7R  11/330/11
S CLEMENTE BASIN           57 61  240/  6/ 10 1010.7R   7/190/17
SAN NICOLAS IS.               57                N/A     7/310/12
SO. S. ROSA ISLA           54 55  300/  6/  8 1009.7R   7/280/11
W. S. BARBARA CH           53 53   30/  2/  4 1009.0R  11/300/11
M. S. BARBARA CH           54 56  180/  6/  6 1010.1R
S. MONICA BASIN            58 59  120/  8/ 10 1010.4R   5/180/17
S PEDRO CHANNEL               62                N/A     2/220/18
OCEANSIDE OFFSHR              64                N/A     3/190/18
TORREY PINES OTR              64                N/A     5/190/18
LA JOLLA 1                 59 65  130/  4/  5 1010.6F
SAN DIEGO BAY                 67              1011.0F
POINT LOMA SOUTH              63                N/A     5/180/18

$$





USA.gov is the U.S. government's official web portal to all federal, state and local government web resources and services.